VTM321 MMMD-MMSM

Flight info

Callsign VTM321
Flight time 1h 28m
Altitude 36000
Route VIVEP1C VIVEP UT24 UBVOV UT101 UMAVO UT169 VITOS VITOS2A
Aircraft B738/M-SDE2E3FGHIRWXY/LB1

Departure

Time 2026-05-07 01:44
Airport Manuel Crescencio Rejón International Airport (MMMD)

Arrival

Time 2026-05-07 03:13
Airport Felipe Ángeles International Airport (MMSM)
Time Latitude Longitude Altitude Speed Heading
2026-05-07 01:32 20.93326 -89.66036 44 ft 0 kts 90°
2026-05-07 01:36 20.93327 -89.66061 44 ft 4 kts 91°
2026-05-07 01:37 20.93327 -89.66084 44 ft 4 kts 84°
2026-05-07 01:37 20.93319 -89.66108 44 ft 4 kts 38°
2026-05-07 01:37 20.93306 -89.66114 44 ft 0 kts
2026-05-07 01:40 20.93330 -89.66114 44 ft 8 kts
2026-05-07 01:40 20.93404 -89.66112 44 ft 13 kts
2026-05-07 01:40 20.93472 -89.66110 43 ft 11 kts
2026-05-07 01:40 20.93543 -89.66088 44 ft 11 kts 62°
2026-05-07 01:41 20.93557 -89.66003 44 ft 11 kts 65°
2026-05-07 01:41 20.93629 -89.65976 44 ft 13 kts
2026-05-07 01:41 20.93711 -89.65972 45 ft 9 kts
2026-05-07 01:41 20.93716 -89.65972 45 ft 0 kts
2026-05-07 01:42 20.93717 -89.65972 45 ft 1 kts
2026-05-07 01:42 20.93736 -89.65964 45 ft 5 kts 37°
2026-05-07 01:42 20.93739 -89.65919 45 ft 7 kts 107°
2026-05-07 01:43 20.93738 -89.65912 45 ft 0 kts 104°
2026-05-07 01:43 20.93737 -89.65909 45 ft 2 kts 104°
2026-05-07 01:43 20.93736 -89.65906 45 ft 0 kts 104°
2026-05-07 01:44 20.93731 -89.65885 42 ft 13 kts 104°
2026-05-07 01:44 20.93625 -89.65474 42 ft 102 kts 105°
2026-05-07 01:44 20.93356 -89.64467 108 ft 171 kts 107°
2026-05-07 01:44 20.93008 -89.63200 1017 ft 179 kts 107°
2026-05-07 01:45 20.92675 -89.61939 2234 ft 171 kts 105°
2026-05-07 01:45 20.92384 -89.60783 3415 ft 154 kts 108°
2026-05-07 01:45 20.92100 -89.59691 3996 ft 164 kts 108°
2026-05-07 01:45 20.91812 -89.58394 4230 ft 194 kts 96°
2026-05-07 01:46 20.92154 -89.56914 4411 ft 222 kts 63°
2026-05-07 01:46 20.93375 -89.55765 4584 ft 251 kts 27°
2026-05-07 01:46 20.95117 -89.55304 4951 ft 264 kts 12°
2026-05-07 01:46 20.96995 -89.55052 5238 ft 280 kts
2026-05-07 01:47 20.98975 -89.54811 5667 ft 291 kts
2026-05-07 01:47 21.00982 -89.54544 6002 ft 293 kts 10°
2026-05-07 01:47 21.03019 -89.54252 6000 ft 295 kts
2026-05-07 01:47 21.05038 -89.54599 6290 ft 302 kts 333°
2026-05-07 01:48 21.06639 -89.56013 7069 ft 300 kts 306°
2026-05-07 01:48 21.07580 -89.57987 7847 ft 298 kts 283°
2026-05-07 01:48 21.07906 -89.60182 8562 ft 299 kts 275°
2026-05-07 01:48 21.08124 -89.62402 9226 ft 302 kts 274°
2026-05-07 01:49 21.08320 -89.64620 9854 ft 305 kts 274°
2026-05-07 01:49 21.08522 -89.66917 10297 ft 318 kts 275°
2026-05-07 01:49 21.08740 -89.69350 10435 ft 338 kts 275°
2026-05-07 01:49 21.08977 -89.71928 10584 ft 357 kts 275°
2026-05-07 01:50 21.09231 -89.74628 10804 ft 371 kts 276°
2026-05-07 01:50 21.09495 -89.77403 11243 ft 377 kts 276°
2026-05-07 01:50 21.09764 -89.80213 11768 ft 381 kts 276°
2026-05-07 01:50 21.10037 -89.83049 12282 ft 385 kts 276°
2026-05-07 01:51 21.10312 -89.85907 12799 ft 389 kts 276°
2026-05-07 01:51 21.10590 -89.88796 13388 ft 390 kts 276°
2026-05-07 01:51 21.10868 -89.91691 14004 ft 392 kts 276°
2026-05-07 01:51 21.11147 -89.94604 14546 ft 395 kts 276°
2026-05-07 01:52 21.11429 -89.97548 15087 ft 399 kts 276°
2026-05-07 01:52 21.11712 -90.00510 15686 ft 400 kts 276°
2026-05-07 01:52 21.11996 -90.03487 16240 ft 403 kts 276°
2026-05-07 01:52 21.12280 -90.06476 16767 ft 405 kts 276°
2026-05-07 01:53 21.12566 -90.09482 17305 ft 408 kts 276°
2026-05-07 01:53 21.12853 -90.12515 17810 ft 410 kts 276°
2026-05-07 01:53 21.13143 -90.15569 18326 ft 413 kts 276°
2026-05-07 01:53 21.13432 -90.18631 18802 ft 416 kts 276°
2026-05-07 01:54 21.13723 -90.21723 19279 ft 418 kts 276°
2026-05-07 01:54 21.14012 -90.24792 19726 ft 421 kts 276°
2026-05-07 01:54 21.14306 -90.27920 20158 ft 424 kts 275°
2026-05-07 01:54 21.14602 -90.31076 20590 ft 426 kts 275°
2026-05-07 01:55 21.14897 -90.34243 21013 ft 429 kts 275°
2026-05-07 01:55 21.15195 -90.37433 21421 ft 431 kts 275°
2026-05-07 01:55 21.15493 -90.40637 21821 ft 433 kts 275°
2026-05-07 01:55 21.15792 -90.43856 22210 ft 436 kts 275°
2026-05-07 01:56 21.16093 -90.47094 22575 ft 438 kts 275°
2026-05-07 01:56 21.16389 -90.50344 22903 ft 441 kts 274°
2026-05-07 01:56 21.16428 -90.53629 23248 ft 442 kts 265°
2026-05-07 01:56 21.16179 -90.56911 23623 ft 443 kts 263°
2026-05-07 01:57 21.15881 -90.60208 23956 ft 445 kts 263°
2026-05-07 01:57 21.15576 -90.63508 24272 ft 447 kts 263°
2026-05-07 01:57 21.15279 -90.66822 24615 ft 448 kts 263°
2026-05-07 01:57 21.14991 -90.70159 24967 ft 449 kts 263°
2026-05-07 01:58 21.14711 -90.73500 25289 ft 451 kts 264°
2026-05-07 01:58 21.14435 -90.76852 25604 ft 452 kts 264°
2026-05-07 01:58 21.14163 -90.80166 25911 ft 453 kts 264°
2026-05-07 01:58 21.13883 -90.83583 26219 ft 454 kts 264°
2026-05-07 01:59 21.13609 -90.86918 26520 ft 455 kts 264°
2026-05-07 01:59 21.13327 -90.90342 26810 ft 457 kts 264°
2026-05-07 01:59 21.13046 -90.93739 27084 ft 458 kts 264°
2026-05-07 01:59 21.12767 -90.97100 27360 ft 459 kts 264°
2026-05-07 02:00 21.12483 -91.00505 27631 ft 460 kts 264°
2026-05-07 02:00 21.12197 -91.03928 27885 ft 462 kts 264°
2026-05-07 02:00 21.11911 -91.07356 28132 ft 463 kts 264°
2026-05-07 02:00 21.11625 -91.10795 28379 ft 464 kts 264°
2026-05-07 02:01 21.11334 -91.14254 28621 ft 465 kts 264°
2026-05-07 02:01 21.11042 -91.17713 28850 ft 466 kts 264°
2026-05-07 02:01 21.10749 -91.21177 29075 ft 467 kts 264°
2026-05-07 02:01 21.10456 -91.24643 29289 ft 468 kts 264°
2026-05-07 02:02 21.10162 -91.28112 29500 ft 470 kts 264°
2026-05-07 02:02 21.09865 -91.31606 29716 ft 471 kts 264°
2026-05-07 02:02 21.09571 -91.35057 29935 ft 471 kts 263°
2026-05-07 02:02 21.09273 -91.38550 30170 ft 471 kts 263°
2026-05-07 02:03 21.08974 -91.42048 30480 ft 470 kts 263°
2026-05-07 02:03 21.08676 -91.45524 30823 ft 468 kts 263°
2026-05-07 02:03 21.08378 -91.48989 31161 ft 466 kts 263°
2026-05-07 02:03 21.08080 -91.52446 31436 ft 465 kts 263°
2026-05-07 02:04 21.07782 -91.55895 31687 ft 465 kts 263°
2026-05-07 02:04 21.07483 -91.59339 32000 ft 464 kts 263°
2026-05-07 02:04 21.07186 -91.62769 32331 ft 462 kts 263°
2026-05-07 02:04 21.06889 -91.66187 32629 ft 461 kts 263°
2026-05-07 02:05 21.06592 -91.69594 32928 ft 459 kts 263°
2026-05-07 02:05 21.06394 -91.71859 33114 ft 459 kts 263°
2026-05-07 02:05 21.06096 -91.75252 33421 ft 458 kts 263°
2026-05-07 02:05 21.05703 -91.79738 33834 ft 455 kts 263°
2026-05-07 02:06 21.05502 -91.82023 34039 ft 454 kts 263°
2026-05-07 02:06 21.05206 -91.85383 34318 ft 453 kts 263°
2026-05-07 02:06 21.04909 -91.88742 34557 ft 453 kts 263°
2026-05-07 02:06 21.04612 -91.92096 34816 ft 453 kts 263°
2026-05-07 02:07 21.04314 -91.95443 35097 ft 451 kts 263°
2026-05-07 02:07 21.03723 -92.02084 35533 ft 451 kts 263°
2026-05-07 02:07 21.03422 -92.05468 35757 ft 451 kts 263°
2026-05-07 02:08 21.03127 -92.08761 35870 ft 452 kts 263°
2026-05-07 02:08 21.02824 -92.12128 35876 ft 456 kts 263°
2026-05-07 02:08 21.02213 -92.18912 35866 ft 458 kts 263°
2026-05-07 02:09 21.01600 -92.25699 35875 ft 457 kts 263°
2026-05-07 02:09 21.00984 -92.32467 35874 ft 457 kts 263°
2026-05-07 02:10 21.00367 -92.39233 35859 ft 456 kts 263°
2026-05-07 02:10 20.99748 -92.45992 35863 ft 456 kts 263°
2026-05-07 02:11 20.99125 -92.52745 35873 ft 456 kts 263°
2026-05-07 02:11 20.98501 -92.59505 35874 ft 457 kts 263°
2026-05-07 02:12 20.97887 -92.66220 35882 ft 456 kts 263°
2026-05-07 02:12 20.97254 -92.72989 35867 ft 457 kts 263°
2026-05-07 02:13 20.96615 -92.79757 35858 ft 457 kts 263°
2026-05-07 02:13 20.95976 -92.86522 35848 ft 457 kts 263°
2026-05-07 02:14 20.95335 -92.93298 35853 ft 457 kts 263°
2026-05-07 02:14 20.94694 -93.00065 35854 ft 457 kts 263°
2026-05-07 02:15 20.94049 -93.06829 35854 ft 457 kts 263°
2026-05-07 02:15 20.93402 -93.13598 35854 ft 457 kts 263°
2026-05-07 02:16 20.92751 -93.20365 35842 ft 457 kts 263°
2026-05-07 02:16 20.92102 -93.27084 35843 ft 457 kts 263°
2026-05-07 02:17 20.91449 -93.33844 35843 ft 457 kts 263°
2026-05-07 02:17 20.90791 -93.40609 35842 ft 457 kts 263°
2026-05-07 02:18 20.90131 -93.47368 35843 ft 457 kts 263°
2026-05-07 02:18 20.89467 -93.54134 35840 ft 457 kts 263°
2026-05-07 02:19 20.88801 -93.60890 35845 ft 457 kts 263°
2026-05-07 02:19 20.88131 -93.67653 35840 ft 458 kts 262°
2026-05-07 02:20 20.87459 -93.74410 35844 ft 457 kts 262°
2026-05-07 02:20 20.86785 -93.81176 35844 ft 457 kts 262°
2026-05-07 02:21 20.86110 -93.87930 35830 ft 457 kts 262°
2026-05-07 02:21 20.85430 -93.94697 35818 ft 458 kts 262°
2026-05-07 02:22 20.84751 -94.01429 35806 ft 458 kts 262°
2026-05-07 02:22 20.84066 -94.08199 35814 ft 457 kts 262°
2026-05-07 02:23 20.83381 -94.14942 35814 ft 457 kts 262°
2026-05-07 02:23 20.82692 -94.21692 35814 ft 456 kts 262°
2026-05-07 02:24 20.82000 -94.28435 35807 ft 457 kts 262°
2026-05-07 02:24 20.81305 -94.35189 35805 ft 457 kts 262°
2026-05-07 02:25 20.80608 -94.41942 35809 ft 457 kts 262°
2026-05-07 02:25 20.79907 -94.48693 35804 ft 457 kts 262°
2026-05-07 02:26 20.79203 -94.55453 35806 ft 457 kts 262°
2026-05-07 02:26 20.78503 -94.62158 35809 ft 457 kts 262°
2026-05-07 02:27 20.77794 -94.68909 35815 ft 457 kts 262°
2026-05-07 02:27 20.77084 -94.75669 35804 ft 457 kts 262°
2026-05-07 02:28 20.76370 -94.82425 35807 ft 457 kts 262°
2026-05-07 02:28 20.75653 -94.89178 35803 ft 457 kts 262°
2026-05-07 02:29 20.74935 -94.95930 35807 ft 457 kts 262°
2026-05-07 02:29 20.74099 -95.02651 35804 ft 456 kts 258°
2026-05-07 02:30 20.72879 -95.09291 35804 ft 455 kts 257°
2026-05-07 02:30 20.71599 -95.15916 35805 ft 455 kts 257°
2026-05-07 02:31 20.70348 -95.22546 35806 ft 456 kts 257°
2026-05-07 02:31 20.69114 -95.29190 35805 ft 456 kts 258°
2026-05-07 02:32 20.67883 -95.35834 35804 ft 456 kts 258°
2026-05-07 02:32 20.66651 -95.42474 35806 ft 456 kts 258°
2026-05-07 02:33 20.65423 -95.49074 35807 ft 456 kts 257°
2026-05-07 02:33 20.64184 -95.55710 35803 ft 456 kts 258°
2026-05-07 02:34 20.62943 -95.62345 35804 ft 456 kts 257°
2026-05-07 02:34 20.61699 -95.68981 35806 ft 456 kts 257°
2026-05-07 02:35 20.60451 -95.75628 35801 ft 457 kts 257°
2026-05-07 02:35 20.59199 -95.82277 35780 ft 457 kts 257°
2026-05-07 02:36 20.57941 -95.88942 35776 ft 458 kts 257°
2026-05-07 02:36 20.56681 -95.95608 35778 ft 458 kts 257°
2026-05-07 02:37 20.55418 -96.02275 35770 ft 458 kts 257°
2026-05-07 02:37 20.54152 -96.08941 35781 ft 458 kts 257°
2026-05-07 02:38 20.52883 -96.15610 35784 ft 458 kts 257°
2026-05-07 02:38 20.51614 -96.22265 35795 ft 458 kts 257°
2026-05-07 02:39 20.50353 -96.28873 35805 ft 458 kts 257°
2026-05-07 02:39 20.49080 -96.35528 35807 ft 458 kts 257°
2026-05-07 02:40 20.47807 -96.42179 35804 ft 458 kts 257°
2026-05-07 02:40 20.46528 -96.48837 35802 ft 458 kts 257°
2026-05-07 02:41 20.45250 -96.55480 35797 ft 458 kts 257°
2026-05-07 02:41 20.43969 -96.62127 35797 ft 457 kts 257°
2026-05-07 02:42 20.42686 -96.68770 35793 ft 457 kts 257°
2026-05-07 02:42 20.41400 -96.75408 35790 ft 457 kts 257°
2026-05-07 02:43 20.40114 -96.82040 35791 ft 456 kts 257°
2026-05-07 02:43 20.38672 -96.88574 35791 ft 455 kts 253°
2026-05-07 02:44 20.36864 -96.95033 35782 ft 455 kts 252°
2026-05-07 02:44 20.35016 -97.01480 35772 ft 455 kts 252°
2026-05-07 02:45 20.33197 -97.07941 35779 ft 455 kts 252°
2026-05-07 02:45 20.31398 -97.14400 35775 ft 455 kts 252°
2026-05-07 02:46 20.29602 -97.20864 35773 ft 456 kts 252°
2026-05-07 02:46 20.27794 -97.27351 35769 ft 456 kts 252°
2026-05-07 02:47 20.25988 -97.33823 35768 ft 456 kts 252°
2026-05-07 02:47 20.24178 -97.40293 35777 ft 456 kts 252°
2026-05-07 02:48 20.22362 -97.46775 35783 ft 457 kts 252°
2026-05-07 02:48 20.20543 -97.53262 35789 ft 457 kts 252°
2026-05-07 02:49 20.18721 -97.59744 35797 ft 457 kts 252°
2026-05-07 02:49 20.16894 -97.66245 35814 ft 458 kts 252°
2026-05-07 02:50 20.15083 -97.72672 35817 ft 450 kts 252°
2026-05-07 02:50 20.14200 -97.75805 35742 ft 436 kts 252°
2026-05-07 02:50 20.13392 -97.78927 34986 ft 440 kts 257°
2026-05-07 02:51 20.12975 -97.82188 33929 ft 452 kts 266°
2026-05-07 02:51 20.12936 -97.85569 32966 ft 460 kts 269°
2026-05-07 02:51 20.12957 -97.88974 32347 ft 459 kts 269°
2026-05-07 02:51 20.12976 -97.92363 31751 ft 457 kts 269°
2026-05-07 02:52 20.12974 -97.95723 31246 ft 452 kts 268°
2026-05-07 02:52 20.12963 -97.97941 30911 ft 449 kts 268°
2026-05-07 02:52 20.12936 -98.01245 30417 ft 445 kts 268°
2026-05-07 02:52 20.12905 -98.04522 29938 ft 441 kts 268°
2026-05-07 02:53 20.12862 -98.08809 29289 ft 434 kts 268°
2026-05-07 02:53 20.12841 -98.10971 28963 ft 432 kts 268°
2026-05-07 02:53 20.12808 -98.14149 28468 ft 428 kts 268°
2026-05-07 02:53 20.12811 -98.17282 27989 ft 422 kts 269°
2026-05-07 02:54 20.12796 -98.20414 27509 ft 422 kts 268°
2026-05-07 02:54 20.12764 -98.23524 27012 ft 419 kts 268°
2026-05-07 02:54 20.12730 -98.26614 26529 ft 417 kts 268°
2026-05-07 02:54 20.12707 -98.29684 26033 ft 413 kts 270°
2026-05-07 02:55 20.13052 -98.32712 25564 ft 412 kts 279°
2026-05-07 02:55 20.13624 -98.35695 25090 ft 410 kts 281°
2026-05-07 02:55 20.14225 -98.38618 24626 ft 407 kts 281°
2026-05-07 02:55 20.14830 -98.41571 24155 ft 406 kts 281°
2026-05-07 02:56 20.15450 -98.44502 23666 ft 405 kts 281°
2026-05-07 02:56 20.16038 -98.47461 23201 ft 402 kts 280°
2026-05-07 02:56 20.16578 -98.50324 22750 ft 398 kts 279°
2026-05-07 02:56 20.17114 -98.53204 22288 ft 395 kts 279°
2026-05-07 02:57 20.17649 -98.56063 21837 ft 393 kts 279°
2026-05-07 02:57 20.18182 -98.58901 21388 ft 390 kts 279°
2026-05-07 02:57 20.18711 -98.61723 20945 ft 387 kts 279°
2026-05-07 02:57 20.19235 -98.64510 20494 ft 384 kts 278°
2026-05-07 02:58 20.19760 -98.67299 20056 ft 382 kts 279°
2026-05-07 02:58 20.20284 -98.70055 19627 ft 379 kts 279°
2026-05-07 02:58 20.20804 -98.72795 19187 ft 376 kts 279°
2026-05-07 02:58 20.21316 -98.75514 18765 ft 372 kts 279°
2026-05-07 02:59 20.21715 -98.78208 18279 ft 368 kts 268°
2026-05-07 02:59 20.21302 -98.80824 18094 ft 348 kts 247°
2026-05-07 02:59 20.20285 -98.83086 18047 ft 334 kts 235°
2026-05-07 02:59 20.18965 -98.85092 17580 ft 330 kts 229°
2026-05-07 03:00 20.17549 -98.86986 17293 ft 327 kts 230°
2026-05-07 03:00 20.16177 -98.88853 17078 ft 321 kts 229°
2026-05-07 03:00 20.14774 -98.90679 16841 ft 317 kts 228°
2026-05-07 03:00 20.13375 -98.92469 16646 ft 313 kts 228°
2026-05-07 03:01 20.11993 -98.94229 16424 ft 313 kts 228°
2026-05-07 03:01 20.10578 -98.96011 16231 ft 319 kts 226°
2026-05-07 03:01 20.09124 -98.97793 16055 ft 318 kts 228°
2026-05-07 03:01 20.07726 -98.99634 15740 ft 321 kts 230°
2026-05-07 03:02 20.06376 -99.01520 15476 ft 316 kts 230°
2026-05-07 03:02 20.05010 -99.03336 15267 ft 316 kts 229°
2026-05-07 03:02 20.03596 -99.05138 15092 ft 317 kts 229°
2026-05-07 03:02 20.02198 -99.06942 14887 ft 314 kts 229°
2026-05-07 03:03 20.00826 -99.08756 14673 ft 315 kts 229°
2026-05-07 03:03 19.99455 -99.10583 14422 ft 317 kts 230°
2026-05-07 03:03 19.98067 -99.12414 14205 ft 317 kts 229°
2026-05-07 03:03 19.96692 -99.14216 14001 ft 318 kts 229°
2026-05-07 03:04 19.95289 -99.16042 13807 ft 319 kts 229°
2026-05-07 03:04 19.93948 -99.17825 13785 ft 300 kts 229°
2026-05-07 03:04 19.92669 -99.19507 13690 ft 287 kts 229°
2026-05-07 03:04 19.91432 -99.21104 13627 ft 271 kts 225°
2026-05-07 03:05 19.89963 -99.22222 13489 ft 252 kts 197°
2026-05-07 03:05 19.88324 -99.22566 13425 ft 235 kts 176°
2026-05-07 03:05 19.86721 -99.22444 13232 ft 228 kts 171°
2026-05-07 03:05 19.85169 -99.22247 12933 ft 222 kts 172°
2026-05-07 03:06 19.83622 -99.22081 12487 ft 224 kts 171°
2026-05-07 03:06 19.82091 -99.21915 12311 ft 214 kts 172°
2026-05-07 03:06 19.80644 -99.21762 12101 ft 206 kts 172°
2026-05-07 03:06 19.79219 -99.21610 11761 ft 205 kts 172°
2026-05-07 03:07 19.77816 -99.21458 11505 ft 199 kts 172°
2026-05-07 03:07 19.76455 -99.21314 11316 ft 195 kts 172°
2026-05-07 03:07 19.75159 -99.21171 11163 ft 198 kts 173°
2026-05-07 03:07 19.73757 -99.21039 10970 ft 203 kts 174°
2026-05-07 03:08 19.72356 -99.20891 10808 ft 203 kts 173°
2026-05-07 03:08 19.70957 -99.20726 10624 ft 201 kts 173°
2026-05-07 03:08 19.69737 -99.20597 10473 ft 199 kts 174°
2026-05-07 03:08 19.68365 -99.20205 10281 ft 198 kts 149°
2026-05-07 03:09 19.67195 -99.19446 10141 ft 198 kts 149°
2026-05-07 03:09 19.66041 -99.18631 9888 ft 201 kts 135°
2026-05-07 03:09 19.65429 -99.17365 9756 ft 188 kts 101°
2026-05-07 03:09 19.65486 -99.16015 9568 ft 179 kts 82°
2026-05-07 03:10 19.65715 -99.14726 9424 ft 181 kts 81°
2026-05-07 03:10 19.65977 -99.13416 9241 ft 181 kts 75°
2026-05-07 03:10 19.66604 -99.12273 9129 ft 181 kts 52°
2026-05-07 03:10 19.67432 -99.11238 9018 ft 185 kts 50°
2026-05-07 03:11 19.68280 -99.10212 8859 ft 183 kts 50°
2026-05-07 03:11 19.69110 -99.09211 8623 ft 178 kts 51°
2026-05-07 03:11 19.69903 -99.08247 8393 ft 169 kts 51°
2026-05-07 03:11 19.70660 -99.07325 8167 ft 165 kts 49°
2026-05-07 03:12 19.71412 -99.06408 7952 ft 165 kts 48°
2026-05-07 03:12 19.72168 -99.05485 7737 ft 167 kts 48°
2026-05-07 03:12 19.72889 -99.04604 7574 ft 162 kts 48°
2026-05-07 03:12 19.73603 -99.03721 7380 ft 151 kts 46°
2026-05-07 03:13 19.74206 -99.03003 7378 ft 121 kts 48°
2026-05-07 03:13 19.74637 -99.02447 7378 ft 64 kts 54°
2026-05-07 03:13 19.74818 -99.02228 7377 ft 30 kts 53°
2026-05-07 03:13 19.74891 -99.02091 7376 ft 14 kts 73°
2026-05-07 03:14 19.74910 -99.01999 7376 ft 12 kts 83°
2026-05-07 03:14 19.74923 -99.01916 7376 ft 11 kts 77°
2026-05-07 03:14 19.74963 -99.01812 7377 ft 9 kts 57°
2026-05-07 03:15 19.75015 -99.01745 7377 ft 14 kts 49°
2026-05-07 03:15 19.75089 -99.01654 7377 ft 17 kts 49°
2026-05-07 03:15 19.75139 -99.01588 7377 ft 10 kts 57°
2026-05-07 03:15 19.75194 -99.01521 7377 ft 14 kts 46°
2026-05-07 03:16 19.75264 -99.01433 7376 ft 15 kts 51°
2026-05-07 03:16 19.75343 -99.01338 7376 ft 19 kts 47°
2026-05-07 03:16 19.75434 -99.01231 7376 ft 20 kts 48°
2026-05-07 03:16 19.75526 -99.01110 7376 ft 20 kts 64°
2026-05-07 03:17 19.75482 -99.01024 7377 ft 0 kts 139°
2026-05-07 03:17 19.75461 -99.01007 7376 ft 6 kts 144°
2026-05-07 03:17 19.75423 -99.00983 7376 ft 6 kts 146°
2026-05-07 03:18 19.75403 -99.00966 7376 ft 0 kts 141°